Regional Weather Roundup
Issued by NWS

Home | Current Version | Previous Version | Graphics & Text | Print | Product List | Glossary Off
Versions: 1 2 3 4 5 6 7 8 9 10 11 12 13 14 15 16 17 18 19 20 21 22 23 24 25 26 27 28 29 30 31 32 33 34 35 36 37 38 39 40 41 42 43 44 45 46 47 48 49 50

000
ASUS43 KMPX 271101
RWRMN
WEATHER ROUNDUP FOR MINNESOTA
NATIONAL WEATHER SERVICE TWIN CITIES/CHANHASSEN MN
500 AM CST MON FEB 27 2017


NOTE: "FAIR" INDICATES FEW OR NO CLOUDS BELOW 12,000 FEET WITH NO
SIGNIFICANT WEATHER AND/OR OBSTRUCTIONS TO VISIBILITY. N/A MEANS
CURRENT SKY AND/OR WEATHER CONDITIONS ARE NOT AVAILABLE.

MNZ060>063-068>070-271200-
   Twin Cities Metro

CITY           SKY/WX    TMP DP  RH WIND       PRES   REMARKS
TWIN CITIES    PTCLDY    23  19  85 SE7       29.95R WCI  15
ST PAUL        PTCLDY    24  21  88 S7        29.97R WCI  16
CRYSTAL        CLEAR     24  19  81 S6        29.92S WCI  17
BLAINE         CLEAR     25  21  86 S6        29.93R WCI  18
LAKEVILLE      MOCLDY    23  19  86 CALM      29.95R
EDEN PRAIRIE   CLEAR     24  19  81 S8        29.93S WCI  15
SOUTH ST PAUL  PTCLDY    25  20  82 SE3       29.95S
LAKE ELMO      FAIR      27  23  86 S9        29.96R WCI  17
$$
MNZ001>005-007-008-013>017-022>024-027-028-271200-
   Northwest Minnesota

CITY           SKY/WX    TMP DP  RH WIND       PRES   REMARKS
BEMIDJI        CLOUDY     0  -4  84 CALM      29.89S
HALLOCK        CLOUDY    12   9  85 S6        29.88R WCI   3
ROSEAU         CLOUDY     7   1  78 S9        29.87S WCI  -7
WARROAD        CLOUDY     9   3  78 SW6       29.88R WCI  -1
THIEF RVR FALL CLOUDY     9   6  88 S7        29.90  WCI  -2
CROOKSTON      CLOUDY    10   9  92 S6        29.91F WCI   1
FOSSTON        CLOUDY     7   3  85 SE3       29.89S
DETROIT LAKES  CLOUDY    19  14  79 CALM      29.89S
MOORHEAD       CLOUDY    19  12  73 CALM      29.91F
PARK RAPIDS    CLOUDY    18   9  68 CALM      29.88S
MAHNOMEN       FAIR      13   9  84 SE5       29.89S WCI   5
$$
MNZ006-009>011-018-025>026-271200-
   North Central Minnesota

CITY           SKY/WX    TMP DP  RH WIND       PRES   REMARKS
BAUDETTE       CLOUDY     4   0  83 S6        29.87F WCI  -7
FLAG ISLAND    CLOUDY     7   1  78 S5        29.85S WCI  -2
INTL FALLS     CLOUDY     2  -3  80 CALM      29.90S
WASKISH        CLOUDY     7   3  85 S3        29.90S
BIG FORK       CLOUDY    -6  -9  84 CALM      29.91S
LONGVILLE      CLOUDY    14  10  85 CALM      29.90F
GRAND RAPIDS   CLOUDY    11   6  81 CALM      29.93S
CRANE LAKE     CLEAR     -8 -11  84 CALM      29.95S
ORR            CLOUDY     3  -4  72 CALM      29.89S
COOK           CLOUDY    -8 -11  84 CALM      29.92F
WALKER         CLOUDY    13   8  81 SE3       29.89F
$$
MNZ012-019>021-037-271200-
   Northeast Minnesota

CITY           SKY/WX    TMP DP  RH WIND       PRES   REMARKS
DULUTH         CLOUDY    17   8  67 CALM      29.92S
ELY            CLOUDY    -8 -11  84 CALM      29.93R
HIBBING        CLOUDY     4  -1  80 CALM      29.92S
EVELETH        CLOUDY     4  -1  78 CALM      29.94S
DULUTH HARBOR  CLOUDY    18   9  68 CALM      29.98S
TWO HARBORS    CLOUDY    12   7  79 CALM      29.93S
SILVER BAY     CLOUDY     9   3  78 CALM      29.94S
GRAND MARAIS     N/A     17   1  49 NW6       29.99R WCI   9
G MARAIS ARPRT CLEAR      0  -8  71 CALM      29.90R
$$
MNZ029>031-032-039>041-046>048-054>057-064-271200-
   West Central Minnesota

CITY           SKY/WX    TMP DP  RH WIND       PRES   REMARKS
FERGUS FALLS   CLOUDY    19  12  73 W3        29.94S
WHEATON        PTCLDY    18  16  93 CALM      29.91R
MORRIS         CLEAR     19  16  86 E7        29.87R WCI  10
ALEXANDRIA     PTCLDY    21  18  88 E8        29.87S WCI  11
ELBOW LAKE     MOCLDY    18  15  88 E6        29.89R WCI  10
WADENA         MIX PCPN  16  10  79 E5        29.88F WCI   9
GLENWOOD       CLEAR     18  18 100 NE6       29.88R WCI   9
APPLETON       PTCLDY    21  19  93 CALM      29.88R
BENSON         CLEAR     25  18  74 SE5       29.89S WCI  19
ORTONVILLE       N/A     19  18  93 CALM      29.88R
MADISON        CLEAR     27  27 100 CALM      29.88R
WILLMAR        MOCLDY    28  27  93 CALM      29.89S
$$
MNZ033>034-036-042>043-049>051-058-059-271200-
   Central Minnesota

CITY           SKY/WX    TMP DP  RH WIND       PRES   REMARKS
ST CLOUD       PTCLDY    22  18  85 NE5       29.91S WCI  16
SAUK CENTRE    FAIR      18  17  93 CALM      29.89S
PAYNESVILLE    PTCLDY    23  19  84 NE3       29.89S
AITKIN         CLOUDY    19  10  68 CALM      29.90F
PINE RIVER     CLOUDY    16  10  79 CALM      29.93F
BRAINERD       CLOUDY    17  11  77 CALM      29.91F
STAPLES        CLOUDY    16  10  79 CALM      29.90R
LONG PRAIRIE   FAIR      19  18  93 NE6       29.88F WCI  11
LITTLE FALLS   CLOUDY    21  18  86 E3        29.90F
LITCHFIELD     CLEAR     25  23  93 CALM      29.90R
BUFFALO        CLEAR     25  22  89 CALM      29.92F
MAPLE LAKE     CLEAR     25  23  91 CALM      29.91S
HUTCHINSON     CLOUDY    25  24  96 CALM      29.91S
$$
MNZ037-044-045-052-053-271200-
   East Central Minnesota

CITY           SKY/WX    TMP DP  RH WIND       PRES   REMARKS
PRINCETON      MOCLDY    25  19  80 CALM      29.92S
MORA           CLOUDY    19  18  93 CALM      29.95R
CAMBRIDGE      CLEAR     27  18  69 CALM      29.91S
RUSH CITY      CLOUDY    21  18  86 CALM      29.94F
MOOSE LAKE     CLOUDY    18  10  73 CALM      29.92F
HINCKLEY       CLOUDY    21  19  93 CALM      29.94S
CLOQUET        CLOUDY    16   9  73 CALM      29.92S
MCGREGOR       CLOUDY    19  14  79 CALM      29.92F
$$
MNZ071>073-080-081-089-090-097-098-271200-
   Southwest Minnesota

CITY           SKY/WX    TMP DP  RH WIND       PRES   REMARKS
MONTEVIDEO     CLEAR     27  21  80 SW6       29.90R WCI  20
GRANITE FALLS  CLEAR     26  23  85 S6        29.90S WCI  20
CANBY          CLEAR     29  22  76 SW10      29.87S WCI  19
MARSHALL       CLEAR     29  20  69 SW13      29.87S WCI  19
REDWOOD FALLS  CLEAR     27  21  78 SW8       29.89S WCI  19
OLIVIA         CLEAR     23  21  93 S3        29.89R
PIPESTONE      CLEAR     25  18  74 S8        29.88R WCI  16
WINDOM         CLEAR     27  21  80 S10       29.91R WCI  17
WORTHINGTON    CLEAR     25  21  85 S12       29.91S WCI  14
JACKSON        CLEAR     23  19  86 SW9       29.93R WCI  13
TRACY          CLEAR     29  23  76 SW15      29.88S WCI  18
SLAYTON        CLEAR     25  21  84 S8        29.89S WCI  17
$$
MNZ065>067-074>077-082>085-091>093-271200-
   South Central Minnesota

CITY           SKY/WX    TMP DP  RH WIND       PRES   REMARKS
MANKATO          N/A     19  16  88 S10       29.95R WCI   7
NEW ULM        CLEAR     25  19  80 S8        29.91F WCI  16
ST JAMES       CLEAR     25  21  86 S12       29.93S WCI  14
FAIRMONT       CLEAR     15  11  83 S9        29.95S WCI   3
GLENCOE        CLEAR     26  25  95 S5        29.91S WCI  20
FARIBAULT      CLEAR     19  16  86 S6        29.96R WCI  11
OWATONNA       CLEAR     19  16  86 S14       29.95S WCI   6
WASECA         CLEAR     21  18  86 S10       29.97S WCI  10
ALBERT LEA     CLEAR     18  18 100 S5        29.97S WCI  11
$$
MNZ078>079-086>088-094>096-271200-
   Southeast Minnesota

CITY           SKY/WX    TMP DP  RH WIND       PRES   REMARKS
ROCHESTER      CLEAR     12  10  92 S12       29.98R WCI  -2
RED WING       CLEAR     21  18  86 SE3       29.98R
STANTON        CLEAR     22  17  79 S5        29.95R WCI  16
WINONA         CLEAR     18  16  93 CALM      30.03R
AUSTIN         CLEAR     16  14  93 S3        29.98S
PRESTON        CLEAR     20  18  92 SW8       30.00R WCI  10
$$
ABBREVIATIONS USED IN REMARKS
   TC - TEMPERATURES IN CELSIUS
  WCI - WIND CHILL INDEX
   HX - HEAT INDEX
  VSB - VISIBILITY
$$




USA.gov is the U.S. government's official web portal to all federal, state and local government web resources and services.